Find Starlink 2728

NORAD ID: 48478 Int'l Des: 2021-040 Owner: SPXS Country: US Constellation: starlink operational
LEOCIRCULARSTARLINK_TYPE

現在のビュー

3D地球を読み込み中...

Starlink 2728について

説明を読み込み中...

次回通過

Passes for default location (London). Set your location on the main map for personalized predictions.

高度履歴

Loading altitude history...

軌道要素

1 48478U 21040BC 26149.37130478 .00000055 00000-0 13534-4 0 9993
2 48478 53.1569 175.8626 0001169 91.1026 269.0110 15.31710261278859
Epoch: May 29, 2026 • Age: 23 hours

現在のステータス

高度 477.7 km
速度 7.63 km/s
衛星直下点 -23.26°S, 6.09°E
打ち上げ日 May 9, 2021
運用期間 5 years
タイプ internet

技術仕様

分類 Payload
質量 260.00 kg
乾燥質量 248.00 kg
総質量 260.00 kg
長さ 0.20 m
直径 2.80 m
スパン 9.00 m
形状 Box + pan
製造者 SPXS
バスタイプ Starlink
フェーズステータス In Orbit
所有者/国 SPXS/US

Most Searched